Location: Andrest
(43.3200°N, 0.0641°E)
Time: 18:51:20
(UTC+00:00)

Daily predictions for brighter satellites

Satellite Brightness Start Highest point End
(mag) Time Altitude Azimuth Time Altitude Azimuth Time Altitude Azimuth
Cosmos 2297 3.7 16:49:01 10° NNW 16:54:42 67° ENE 17:00:23 10° SE
Cosmos 962 Rocket 4.5 16:48:27 10° N 16:54:43 69° E 17:00:51 10° SSE
SL-16 R/B 2.2 16:51:23 10° SSW 16:57:02 79° ESE 17:02:42 10° NNE
CZ-4B R/B 3.0 16:57:25 10° NE 16:59:25 16° E 17:01:25 10° SE
Landsat 5 3.7 16:56:13 10° NNE 17:00:43 77° ESE 17:05:14 10° S
BREEZE-M DEB (TANK) 1.7 16:58:15 10° WSW 17:01:28 89° NNW 17:03:26 10° ENE
SMAP 3.2 17:00:27 10° SSE 17:04:57 53° ENE 17:09:30 10° N
USA 215 4.5 17:00:09 10° ENE 17:05:15 24° SE 17:10:19 10° S
Sich 1 3.3 17:04:26 10° NNW 17:08:48 75° W 17:13:06 10° S
Cosmos 1151 Rocket 3.1 17:07:09 10° S 17:11:18 54° E 17:15:28 10° NNE
CZ-4C R/B 3.4 17:08:05 10° N 17:11:42 70° WNW 17:15:16 10° SSW
Cosmos 1470 Rocket 4.1 17:09:41 10° N 17:13:39 35° ENE 17:17:36 10° SE
Cosmos 1515 Rocket 4.2 17:15:27 10° SSE 17:19:23 34° E 17:23:22 10° NNE
CZ-2C R/B 4.2 17:17:45 10° ESE 17:21:00 18° ENE 17:24:12 10° NNE
Cosmos 482 Debris 2.5 17:20:46 10° NW 17:22:31 51° NNE 17:23:46 18° ESE
SL-8 Rocket 4.0 17:16:37 10° N 17:22:53 77° E 17:29:11 10° SSE
Cosmos 2341 Rocket 4.2 17:18:07 10° N 17:24:27 80° W 17:30:47 10° S
Radarsat Rocket 4.4 17:20:41 10° SSE 17:26:47 76° WSW 17:33:40 10° NNW
COSMO-SKYMED 1 3.5 17:23:25 10° NE 17:27:09 27° E 17:30:51 10° SSE
X-37B 0.6 17:24:10 10° WSW 17:27:21 79° SSE 17:29:28 19° ENE
Cosmos 1689 Rocket 4.3 17:29:01 11° ESE 17:29:01 11° ESE 17:29:24 10° ESE
USA 281 4.1 17:23:09 10° ESE 17:28:25 26° NE 17:33:41 10° N
Cosmos 1959 Rocket 4.5 17:22:06 10° N 17:28:28 70° E 17:34:47 10° SSE
Cosmos 2228 Rocket 4.2 17:28:29 10° SE 17:32:04 23° E 17:34:29 15° NE
CORIOLIS 4.1 17:26:52 10° SSE 17:32:16 83° ENE 17:37:45 10° NNW
USA 81 4.0 17:27:10 10° N 17:32:29 79° E 17:37:45 10° S
Meteor 1-4 Rocket 2.4 17:29:41 10° S 17:33:15 65° E 17:36:47 10° NNE
Cosmos 2285 Rocket 4.2 17:28:32 10° NNW 17:34:56 81° WSW 17:41:16 10° SSE
Cosmos 1812 3.9 17:32:56 10° SE 17:35:53 21° E 17:36:35 20° ENE
H-2A R/B 3.4 17:35:18 17° ENE 17:35:55 18° ENE 17:39:15 10° NNE
Cosmos 1939 Rocket 3.2 17:34:35 10° SE 17:38:11 38° ENE 17:41:52 10° N
Cosmos 1821 Rocket 4.5 17:32:44 10° N 17:38:28 36° ENE 17:44:13 10° SE
USA 267 4.1 17:34:10 16° ENE 17:38:30 32° NNE 17:44:07 10° NW
Cosmos 1328 Rocket 3.6 17:34:54 10° S 17:39:13 83° W 17:43:35 10° N
CZ-4 R/B 2.8 17:41:26 19° NE 17:41:26 19° NE 17:43:38 10° NNE
BREEZE-M DEB (TANK) 3.6 17:37:58 10° SSW 17:41:31 23° SSE 17:42:53 18° ESE
Cosmos 44 Rocket 4.3 17:38:15 10° NNW 17:42:45 29° NE 17:45:09 20° E
Cosmos 1933 Rocket 3.7 17:39:26 10° N 17:43:47 50° ENE 17:48:06 10° SSE
IRS-1C Rocket 4.4 17:39:36 10° SE 17:44:35 44° ENE 17:49:34 10° N
Cosmos 1602 3.6 17:42:25 10° N 17:46:21 84° E 17:50:13 10° S
Cosmos 2181 Rocket 4.3 17:40:44 10° SSW 17:47:08 72° W 17:53:29 10° N
H-2A R/B 4.4 17:43:32 10° SSW 17:47:22 33° W 17:51:07 10° NNW
Lacrosse 4 Rocket 3.4 17:46:00 10° SE 17:46:58 13° ESE 17:46:58 13° ESE
NOAA 11 4.1 17:42:52 10° SSE 17:48:17 87° ENE 17:53:46 10° NNW
Cosmos 1680 Rocket 4.4 17:44:14 10° SSE 17:48:38 28° E 17:50:19 23° ENE
Cosmos 2237 Rocket 4.4 17:44:49 10° W 17:48:40 18° NW 17:52:32 10° N
CZ-4B R/B 3.8 17:44:21 10° S 17:49:35 59° WSW 17:54:50 10° NNW
SL-24 R/B 4.1 17:49:33 24° NE 17:51:17 39° E 17:54:42 10° SSE
Cosmos 1603 3.7 17:47:07 10° S 17:52:38 59° ESE 17:56:56 17° NE
CZ-2D R/B 3.6 17:51:27 10° SE 17:55:02 41° ENE 17:58:40 10° N
Cosmos 1943 3.3 17:50:31 10° S 17:56:00 55° ESE 17:59:58 19° NE
Cosmos 1538 Rocket 4.1 17:52:47 10° SSW 17:58:09 82° WNW 18:03:35 10° NNE
H-2A R/B 3.7 17:55:06 10° N 17:58:54 33° WNW 18:02:47 10° SW
Cosmos 2369 Rocket 2.1 17:53:44 10° NNW 17:59:28 80° ENE 18:05:06 10° SSE
Cosmos 1943 Rocket 2.7 17:55:11 10° NNW 18:00:40 63° WSW 18:06:11 10° S
Cosmos 1782 3.2 17:57:43 10° SSW 18:01:39 63° W 18:05:37 10° N
Okean O Rocket 2.8 17:57:38 10° S 18:01:48 44° W 18:06:01 10° NNW
Meteor 1-14 Rocket 4.3 17:55:55 10° N 18:01:56 87° E 18:07:55 10° S
Meteor 1-5 Rocket 4.3 17:56:14 10° N 18:02:01 53° ENE 18:07:35 10° SSE
Cosmos 1461 4.2 17:59:03 10° SSE 18:02:44 25° ESE 18:02:44 25° ESE
Okean-O 3.0 17:59:20 10° SE 18:03:25 38° ENE 18:07:32 10° N
CENTAUR R/B 3.1 18:01:01 10° S 18:06:05 33° ESE 18:07:44 29° E
ISS -2.1 18:03:26 10° NW 18:05:56 22° N 18:05:56 22° N
SL-08 R/B 4.4 18:06:50 10° N 18:12:59 88° W 18:19:06 10° S
ERS-2 2.5 18:10:45 15° N 18:13:40 62° WNW 18:17:16 10° SSW
NOSS 3-2 (C) 3.9 18:09:09 10° S 18:14:09 36° ESE 18:15:09 34° E
SKYMED 2 3.5 18:11:44 15° NNE 18:15:23 90° NW 18:19:44 10° SSW
Cosmos 1869 Rocket 3.9 18:14:11 10° N 18:22:43 11° SSE 18:22:50 10° SSE
BREEZE-M DEB (TANK) 3.3 18:09:26 10° SW 18:18:58 72° SSE 18:19:59 49° E
Meteor 1-27 Rocket 4.1 18:15:22 10° SSE 18:20:11 38° E 18:20:11 38° E
Meteor 1-10 Rocket 4.1 18:19:11 10° S 18:24:47 70° E 18:28:49 19° NNE
Lacrosse 5 rocket 3.3 18:23:17 10° NW 18:25:21 14° NNW 18:25:53 14° N
BREEZE-M DEB (TANK) 4.3 18:25:54 10° NW 18:26:37 17° NW 18:26:37 17° NW
FALCON 9 R/B 3.1 18:27:37 10° SW 18:28:30 14° SSW 18:28:30 14° SSW
Cosmos 371 Rocket 4.5 18:25:25 10° N 18:28:01 27° NNE 18:28:01 27° NNE
CZ-4B R/B 3.5 18:29:34 13° NNW 18:31:39 24° WNW 18:34:16 10° SW
NOSS 3-2 (A) 3.2 18:33:40 10° SW 18:39:17 90° N 18:41:27 43° NE
SL-16 R/B 4.4 18:37:52 10° W 18:41:49 19° NW 18:45:48 10° N
Cosmos 1500 4.1 18:38:37 10° NNW 18:42:18 47° W 18:46:00 10° SSW
YAOGAN 1 3.7 18:46:29 33° NNW 18:46:29 33° NNW 18:48:54 10° NNW
Cosmos 2239 Rocket 4.4 18:38:59 10° N 18:45:11 86° W 18:51:24 10° S
Cosmos 1535 Rocket 4.3 18:40:00 10° N 18:46:05 63° E 18:52:07 10° SSE
USA 215 3.1 18:46:43 48° NE 18:48:48 87° SE 18:55:21 10° SW
Cosmos 1656 Rocket 3.9 18:48:53 10° NNW 18:54:29 67° WSW 18:58:59 16° S
MOS 1 Rocket 3.6 18:52:44 35° N 18:55:06 80° WNW 19:00:27 10° SSW
USA 238 DEB 3.6 18:52:02 10° SW 18:58:37 79° NW 19:00:34 49° NNE
USA 238 3.6 18:52:08 10° SW 18:58:42 80° NW 19:00:39 50° NNE
Cosmos 158 Rocket 4.5 18:54:49 10° SW 18:59:40 53° WNW 19:00:45 44° NNW
CZ-2C R/B 3.5 18:55:34 10° S 19:00:30 57° W 19:05:16 10° NNW
COSMO-SKYMED 1 4.4 19:00:20 14° NNW 19:03:15 28° WNW 19:06:58 10° SW
X-37B 3.6 19:00:54 10° W 19:01:44 17° WNW 19:01:44 17° WNW
Cosmos 1238 Rocket 4.1 19:01:25 10° NNW 19:05:22 45° W 19:10:08 10° SSW
Cosmos 1934 Rocket 4.0 19:01:40 10° N 19:08:03 83° W 19:14:20 10° S
CSL-04 Debris 4.3 19:09:14 68° NNW 19:09:14 68° NNW 19:14:01 10° NNW
USA 281 3.4 19:05:50 10° SSE 19:12:22 71° WSW 19:18:57 10° NNW
H-2A R/B 2.6 19:15:55 52° NW 19:15:55 52° NW 19:19:58 10° NNW
CZ-4 R/B 3.6 19:17:28 20° NW 19:17:28 20° NW 19:19:04 10° NNW
USA 267 3.4 19:21:32 62° N 19:21:32 62° N 19:27:18 10° NW
Cosmos 44 Rocket 4.3 19:19:31 10° NW 19:23:56 47° W 19:23:56 47° W
Meteor 1-11 Rocket 4.5 19:19:24 10° NNW 19:25:02 53° W 19:30:44 10° S
Lacrosse 4 Rocket 3.9 19:22:18 10° SW 19:23:20 17° SW 19:23:20 17° SW
CENTAUR R/B 3.5 19:50:37 10° WSW 19:54:58 42° W 19:54:58 42° W
